EDT,Max TemperatureF,Mean TemperatureF,Min TemperatureF,Max Dew PointF,MeanDew PointF,Min DewpointF,Max Humidity, Mean Humidity, Min Humidity, Max Sea Level PressureIn, Mean Sea Level PressureIn, Min Sea Level PressureIn, Max VisibilityMiles, Mean VisibilityMiles, Min VisibilityMiles, Max Wind SpeedMPH, Mean Wind SpeedMPH, Max Gust SpeedMPH,PrecipitationIn, CloudCover, Events, WindDirDegrees
2010-10-1,85,81,76,73,68,65,79,67,55,29.81,29.76,29.73,10,10,10,14,7,18,0.00,1,,342
2010-10-2,85,79,72,70,68,64,87,73,59,29.83,29.79,29.75,10,10,10,7,3,9,0.00,0,,316
2010-10-3,86,82,78,73,70,68,79,70,61,29.90,29.84,29.80,10,10,10,18,7,24,0.00,1,,314
2010-10-4,84,81,77,73,68,65,79,67,55,29.98,29.93,29.87,10,10,10,21,12,26,T,5,Rain,16
2010-10-5,84,80,75,70,68,66,82,70,58,29.98,29.94,29.89,10,10,10,20,15,29,0.00,5,,14
2010-10-6,84,79,73,70,67,59,87,69,51,29.96,29.92,29.88,10,10,10,21,15,28,0.00,5,,25
2010-10-7,82,76,70,66,64,62,79,67,54,30.00,29.95,29.91,10,10,10,21,13,29,0.00,3,,24
2010-10-8,83,78,73,68,66,64,79,67,55,30.04,30.00,29.96,10,10,10,18,10,23,0.00,3,,30
2010-10-9,83,79,74,70,68,66,82,70,58,30.06,30.01,29.98,10,10,10,12,6,14,0.00,1,,18
2010-10-10,83,78,73,69,66,63,82,67,51,30.03,29.99,29.94,10,10,10,13,7,16,0.00,0,,41
2010-10-11,86,82,77,72,69,66,84,68,55,30.02,29.97,29.94,10,10,10,13,7,17,0.00,3,,74
2010-10-12,81,77,72,76,74,71,100,87,74,29.99,29.95,29.92,10,5,0,22,8,29,8.28,7,Fog-Rain-Thunderstorm,66
2010-10-13,84,80,75,79,76,73,97,88,79,30.00,29.96,29.93,10,9,3,10,4,12,0.08,3,Rain,17
2010-10-14,79,77,74,77,76,74,97,94,91,29.98,29.93,29.87,10,7,0,7,2,,1.38,5,Fog-Rain-Thunderstorm,354
2010-10-15,85,79,73,72,68,64,87,74,61,29.98,29.92,29.88,10,10,10,16,10,23,0.01,4,,356
2010-10-16,83,78,72,67,62,57,79,61,43,30.08,30.01,29.96,10,10,10,15,10,21,0.00,1,,29
2010-10-17,83,78,73,68,64,61,79,65,51,30.11,30.05,30.00,10,10,10,14,9,18,T,1,,54
2010-10-18,84,80,75,70,67,65,82,70,58,30.05,29.98,29.94,10,10,10,15,10,21,0.00,2,,66
2010-10-19,84,79,74,75,71,65,85,75,64,29.99,29.94,29.89,10,10,10,12,6,15,0.00,2,,64
2010-10-20,84,81,77,75,74,71,91,81,70,29.94,29.91,29.87,10,10,10,10,6,14,0.00,1,,28
2010-10-21,83,79,75,73,71,69,94,82,69,29.98,29.93,29.90,10,10,10,13,7,16,0.00,2,,8
2010-10-22,86,81,76,73,72,70,88,73,57,30.03,29.98,29.92,10,10,10,20,13,26,0.02,2,,49
2010-10-23,85,82,78,78,74,73,85,80,74,30.08,30.04,29.99,10,10,8,20,13,26,0.06,3,Rain,77
2010-10-24,86,83,79,75,73,72,85,75,65,30.07,30.03,29.99,10,10,10,16,10,23,0.00,2,,91
2010-10-25,87,82,77,76,74,73,85,78,70,30.01,29.96,29.93,10,9,2,16,9,26,0.09,3,Rain,119
2010-10-26,86,83,79,77,75,73,85,78,70,30.01,29.96,29.92,10,10,9,14,7,22,0.01,2,,122
2010-10-27,87,83,79,76,75,74,85,77,68,30.09,30.03,29.98,10,10,10,13,7,18,T,1,,101
2010-10-28,86,80,74,77,73,69,85,75,65,30.10,30.05,29.99,10,8,1,15,6,18,0.46,4,Rain,81
2010-10-29,85,79,73,75,72,68,93,79,65,30.04,30.00,29.95,10,9,2,18,3,31,0.24,3,Rain-Thunderstorm,22
2010-10-30,87,82,76,74,73,71,88,75,61,30.07,30.02,29.99,10,10,10,15,9,22,0.00,3,,66
2010-10-31,87,81,75,75,73,71,88,75,61,30.10,30.04,30.00,10,10,2,15,4,21,0.21,3,Rain,92